^^
nws-alerts.php - 1.15 - 19-Aug-2013 - NWS Public Alerts
Station Historical Data
 
Daily Summary for June 21, 2018 Units:  English    Metric   Both
« Previous Day
Next Day »
Daily Weekly Monthly Yearly Custom
  Current: High: Low: Average:
Temperature: 82.0 °F 92.3 °F 75.0 °F 83.6 °F
Dew Point: 76.3 °F 78.9 °F 72.8 °F 75.6 °F
Humidity: 83% 94% 58% 78%
Wind Speed: 0.0mph 13.1mph 0.0mph 2.8mph
Wind Gust: 0.0mph 15.4mph - -
WindCalm - - West
Pressure: 29.95 in 29.95 in 29.89 in -
Precipitation: 0.00 in      
Historical Graphs
 
 
Tabular Data for June 21, 2018
Time Temperature Dew Point Pressure Wind Wind Speed Wind Gust Humidity Rainfall Rate (Hourly) Conditions
00:04 78.4 °F 73.9 °F 29.95 in Calm     86% 0.00 in 0.00 W/m2
00:09 78.3 °F 73.8 °F 29.95 in Calm     86% 0.00 in 0.00 W/m2
00:14 78.1 °F 73.6 °F 29.95 in Calm     86% 0.00 in 0.00 W/m2
00:19 78.0 °F 73.5 °F 29.94 in Calm     86% 0.00 in 0.00 W/m2
00:24 78.1 °F 73.9 °F 29.94 in Calm     87% 0.00 in 0.00 W/m2
00:29 78.1 °F 73.9 °F 29.94 in Calm     87% 0.00 in 0.00 W/m2
00:34 78.2 °F 74.0 °F 29.94 in Calm     87% 0.00 in 0.00 W/m2
00:39 78.0 °F 73.5 °F 29.94 in Calm     86% 0.00 in 0.00 W/m2
00:44 77.9 °F 73.7 °F 29.94 in Calm     87% 0.00 in 0.00 W/m2
00:49 78.1 °F 73.9 °F 29.94 in Calm     87% 0.00 in 0.00 W/m2
00:54 77.9 °F 73.7 °F 29.94 in Calm     87% 0.00 in 0.00 W/m2
00:59 78.0 °F 73.8 °F 29.93 in Calm     87% 0.00 in 0.00 W/m2
01:04 77.9 °F 73.7 °F 29.93 in Calm     87% 0.00 in 0.00 W/m2
01:09 77.8 °F 73.6 °F 29.93 in Calm     87% 0.00 in 0.00 W/m2
01:14 77.8 °F 73.6 °F 29.93 in Calm     87% 0.00 in 0.00 W/m2
01:19 77.7 °F 73.5 °F 29.93 in Calm     87% 0.00 in 0.00 W/m2
01:24 77.6 °F 73.4 °F 29.92 in Calm     87% 0.00 in 0.00 W/m2
01:29 77.5 °F 73.7 °F 29.92 in Calm     88% 0.00 in 0.00 W/m2
01:34 77.3 °F 73.5 °F 29.92 in Calm     88% 0.00 in 0.00 W/m2
01:39 77.3 °F 73.8 °F 29.92 in Calm     89% 0.00 in 0.00 W/m2
01:44 77.3 °F 73.5 °F 29.92 in Calm     88% 0.00 in 0.00 W/m2
01:49 77.3 °F 73.8 °F 29.92 in Calm     89% 0.00 in 0.00 W/m2
01:54 77.1 °F 73.6 °F 29.92 in Calm     89% 0.00 in 0.00 W/m2
01:59 76.9 °F 73.4 °F 29.92 in Calm     89% 0.00 in 0.00 W/m2
02:04 76.9 °F 73.7 °F 29.92 in Calm     90% 0.00 in 0.00 W/m2
02:09 77.0 °F 73.5 °F 29.92 in Calm     89% 0.00 in 0.00 W/m2
02:14 77.0 °F 73.5 °F 29.92 in Calm     89% 0.00 in 0.00 W/m2
02:19 77.1 °F 73.6 °F 29.92 in Calm     89% 0.00 in 0.00 W/m2
02:24 77.1 °F 73.6 °F 29.92 in Calm     89% 0.00 in 0.00 W/m2
02:29 77.2 °F 73.7 °F 29.92 in Calm     89% 0.00 in 0.00 W/m2
02:34 77.2 °F 73.7 °F 29.92 in Calm     89% 0.00 in 0.00 W/m2
02:39 77.2 °F 73.7 °F 29.92 in Calm     89% 0.00 in 0.00 W/m2
02:44 77.4 °F 73.9 °F 29.92 in Calm     89% 0.00 in 0.00 W/m2
02:49 77.7 °F 74.2 °F 29.92 in Calm     89% 0.00 in 0.00 W/m2
02:54 77.8 °F 74.3 °F 29.92 in Calm     89% 0.00 in 0.00 W/m2
02:59 77.8 °F 74.3 °F 29.91 in Calm     89% 0.00 in 0.00 W/m2
03:04 77.6 °F 74.1 °F 29.91 in Calm     89% 0.00 in 0.00 W/m2
03:09 77.3 °F 73.8 °F 29.91 in Calm     89% 0.00 in 0.00 W/m2
03:14 77.3 °F 73.8 °F 29.91 in Calm     89% 0.00 in 0.00 W/m2
03:19 77.1 °F 73.6 °F 29.91 in Calm     89% 0.00 in 0.00 W/m2
03:24 77.0 °F 73.8 °F 29.91 in Calm     90% 0.00 in 0.00 W/m2
03:29 76.9 °F 73.7 °F 29.91 in Calm     90% 0.00 in 0.00 W/m2
03:34 76.9 °F 73.7 °F 29.90 in Calm     90% 0.00 in 0.00 W/m2
03:39 76.8 °F 73.6 °F 29.90 in Calm     90% 0.00 in 0.00 W/m2
03:44 76.7 °F 73.5 °F 29.91 in Calm     90% 0.00 in 0.00 W/m2
03:49 76.4 °F 73.2 °F 29.91 in Calm     90% 0.00 in 0.00 W/m2
03:54 76.3 °F 73.5 °F 29.90 in Calm     91% 0.00 in 0.00 W/m2
03:59 76.4 °F 73.6 °F 29.90 in Calm     91% 0.00 in 0.00 W/m2
04:04 76.4 °F 73.6 °F 29.90 in Calm     91% 0.00 in 0.00 W/m2
04:09 76.2 °F 73.4 °F 29.90 in Calm     91% 0.00 in 0.00 W/m2
04:14 76.0 °F 73.2 °F 29.90 in Calm     91% 0.00 in 0.00 W/m2
04:19 76.0 °F 73.2 °F 29.91 in Calm     91% 0.00 in 0.00 W/m2
04:24 76.1 °F 73.3 °F 29.91 in Calm     91% 0.00 in 0.00 W/m2
04:29 76.1 °F 73.3 °F 29.90 in Calm     91% 0.00 in 0.00 W/m2
04:34 76.2 °F 73.7 °F 29.90 in Calm     92% 0.00 in 0.00 W/m2
04:39 76.2 °F 73.7 °F 29.91 in Calm     92% 0.00 in 0.00 W/m2
04:44 76.0 °F 73.5 °F 29.91 in Calm     92% 0.00 in 0.00 W/m2
04:49 76.0 °F 73.5 °F 29.90 in Calm     92% 0.00 in 0.00 W/m2
04:54 75.8 °F 73.3 °F 29.90 in Calm     92% 0.00 in 0.00 W/m2
04:59 75.7 °F 73.2 °F 29.90 in Calm     92% 0.00 in 0.00 W/m2
05:04 75.7 °F 73.2 °F 29.90 in Calm     92% 0.00 in 0.00 W/m2
05:09 75.5 °F 73.0 °F 29.90 in Calm     92% 0.00 in 0.00 W/m2
05:14 75.5 °F 73.0 °F 29.90 in Calm     92% 0.00 in 0.00 W/m2
05:19 75.5 °F 73.0 °F 29.90 in Calm     92% 0.00 in 0.00 W/m2
05:24 75.5 °F 73.0 °F 29.90 in Calm     92% 0.00 in 0.00 W/m2
05:29 75.5 °F 73.0 °F 29.90 in Calm     92% 0.00 in 0.00 W/m2
05:34 75.3 °F 72.8 °F 29.91 in Calm     92% 0.00 in 0.00 W/m2
05:39 75.4 °F 73.2 °F 29.91 in Calm     93% 0.00 in 0.00 W/m2
05:44 75.5 °F 73.3 °F 29.91 in Calm     93% 0.00 in 0.00 W/m2
05:49 75.5 °F 73.3 °F 29.91 in Calm     93% 0.00 in 0.00 W/m2
05:54 75.7 °F 73.5 °F 29.91 in Calm     93% 0.00 in 0.00 W/m2
05:59 75.7 °F 73.5 °F 29.91 in Calm     93% 0.00 in 0.00 W/m2
06:04 75.6 °F 73.4 °F 29.91 in Calm     93% 0.00 in 0.00 W/m2
06:09 75.4 °F 73.2 °F 29.91 in Calm     93% 0.00 in 0.00 W/m2
06:14 75.3 °F 73.1 °F 29.91 in Calm     93% 0.00 in 0.00 W/m2
06:19 75.4 °F 73.2 °F 29.92 in Calm     93% 0.00 in 0.00 W/m2
06:24 75.2 °F 73.0 °F 29.92 in Calm     93% 0.00 in 0.00 W/m2
06:29 75.2 °F 73.0 °F 29.92 in Calm     93% 0.00 in 0.00 W/m2
06:34 75.1 °F 72.9 °F 29.93 in Calm     93% 0.00 in 0.00 W/m2
06:39 75.0 °F 72.8 °F 29.93 in Calm     93% 0.00 in 0.00 W/m2
06:44 75.1 °F 72.9 °F 29.93 in Calm     93% 0.00 in 0.00 W/m2
06:49 75.1 °F 72.9 °F 29.93 in Calm     93% 0.00 in 0.00 W/m2
06:54 75.1 °F 72.9 °F 29.93 in Calm     93% 0.00 in 0.00 W/m2
06:59 75.4 °F 73.6 °F 29.93 in Calm     94% 0.00 in 0.00 W/m2
07:04 75.7 °F 73.8 °F 29.93 in Calm     94% 0.00 in 0.00 W/m2
07:09 76.2 °F 74.3 °F 29.93 in Calm     94% 0.00 in 0.00 W/m2
07:14 76.4 °F 74.2 °F 29.93 in Calm     93% 0.00 in 0.00 W/m2
07:19 76.7 °F 74.5 °F 29.94 in Calm     93% 0.00 in 0.00 W/m2
07:24 77.6 °F 75.4 °F 29.94 in Calm     93% 0.00 in 0.00 W/m2
07:29 78.2 °F 76.0 °F 29.94 in Calm     93% 0.00 in 0.00 W/m2
07:34 79.3 °F 77.1 °F 29.94 in Calm     93% 0.00 in 0.00 W/m2
07:39 79.9 °F 77.0 °F 29.94 in Calm     91% 0.00 in 0.00 W/m2
07:44 80.5 °F 77.3 °F 29.94 in Calm     90% 0.00 in 0.00 W/m2
07:49 81.0 °F 77.1 °F 29.94 in Calm     88% 0.00 in 0.00 W/m2
07:54 81.8 °F 77.5 °F 29.94 in Calm     87% 0.00 in 0.00 W/m2
07:59 82.2 °F 77.2 °F 29.95 in Calm     85% 0.00 in 0.00 W/m2
08:04 82.3 °F 77.3 °F 29.95 in Calm     85% 0.00 in 0.00 W/m2
08:09 82.8 °F 77.8 °F 29.95 in Calm     85% 0.00 in 0.00 W/m2
08:14 83.1 °F 77.8 °F 29.95 in Calm     84% 0.00 in 0.00 W/m2
08:19 83.5 °F 77.8 °F 29.95 in Calm     83% 0.00 in 0.00 W/m2
08:24 84.1 °F 78.4 °F 29.95 in NNE 0.7 mph 2.2 mph 83% 0.00 in 0.00 W/m2
08:29 84.5 °F 78.4 °F 29.95 in North 1.3 mph 2.3 mph 82% 0.00 in 0.00 W/m2
08:34 84.8 °F 78.7 °F 29.95 in WNW 0.6 mph 1.2 mph 82% 0.00 in 0.00 W/m2
08:39 85.1 °F 78.2 °F 29.95 in WNW 5.5 mph 6.9 mph 80% 0.00 in 0.00 W/m2
08:44 84.9 °F 78.4 °F 29.95 in WNW 2.4 mph 4.6 mph 81% 0.00 in 0.00 W/m2
08:49 84.8 °F 77.9 °F 29.95 in WNW 4.5 mph 5.8 mph 80% 0.00 in 0.00 W/m2
08:54 85.3 °F 78.0 °F 29.95 in West 2.7 mph 5.8 mph 79% 0.00 in 0.00 W/m2
08:59 86.1 °F 78.4 °F 29.95 in NNW 3.8 mph 4.6 mph 78% 0.00 in 0.00 W/m2
09:04 86.6 °F 78.9 °F 29.95 in WSW 3.5 mph 6.6 mph 78% 0.00 in 0.00 W/m2
09:09 86.4 °F 77.5 °F 29.95 in WSW 7.2 mph 7.7 mph 75% 0.00 in 0.00 W/m2
09:14 85.5 °F 75.9 °F 29.95 in WSW 4.1 mph 5.8 mph 73% 0.00 in 0.00 W/m2
09:19 85.8 °F 75.3 °F 29.95 in WNW 5.2 mph 6.6 mph 71% 0.00 in 0.00 W/m2
09:24 86.9 °F 77.6 °F 29.95 in West 4.5 mph 9.2 mph 74% 0.00 in 0.00 W/m2
09:29 87.1 °F 76.1 °F 29.95 in WSW 6.9 mph 10.4 mph 70% 0.00 in 0.00 W/m2
09:34 87.7 °F 76.7 °F 29.95 in WSW 5.3 mph 7.7 mph 70% 0.00 in 0.00 W/m2
09:39 88.0 °F 77.8 °F 29.95 in WNW 5.6 mph 9.2 mph 72% 0.00 in 0.00 W/m2
09:44 88.4 °F 78.6 °F 29.95 in WNW 6.4 mph 5.8 mph 73% 0.00 in 0.00 W/m2
09:49 88.6 °F 78.4 °F 29.95 in WNW 5.4 mph 6.9 mph 72% 0.00 in 0.00 W/m2
09:54 88.3 °F 78.5 °F 29.95 in WSW 6.7 mph 10.4 mph 73% 0.00 in 0.00 W/m2
09:59 87.9 °F 78.6 °F 29.95 in West 4.7 mph 10.4 mph 74% 0.00 in 0.00 W/m2
10:04 87.4 °F 77.7 °F 29.94 in WNW 4.3 mph 6.9 mph 73% 0.00 in 0.00 W/m2
10:09 86.7 °F 77.8 °F 29.95 in WNW 4.6 mph 5.8 mph 75% 0.00 in 0.00 W/m2
10:14 86.3 °F 77.4 °F 29.94 in WNW 5.0 mph 6.6 mph 75% 0.00 in 0.00 W/m2
10:19 86.0 °F 76.7 °F 29.94 in West 4.6 mph 6.9 mph 74% 0.00 in 0.00 W/m2
10:24 86.0 °F 76.7 °F 29.95 in WNW 4.1 mph 4.6 mph 74% 0.00 in 0.00 W/m2
10:29 86.0 °F 75.9 °F 29.95 in WNW 3.3 mph 6.9 mph 72% 0.00 in 0.00 W/m2
10:34 87.4 °F 77.7 °F 29.95 in WNW 2.5 mph 4.6 mph 73% 0.00 in 0.00 W/m2
10:39 87.7 °F 77.1 °F 29.94 in WNW 2.6 mph 4.6 mph 71% 0.00 in 0.00 W/m2
10:44 88.5 °F 77.0 °F 29.94 in WNW 3.3 mph 4.6 mph 69% 0.00 in 0.00 W/m2
10:49 89.6 °F 78.5 °F 29.94 in NE 4.5 mph 9.9 mph 70% 0.00 in 0.00 W/m2
10:54 89.5 °F 77.5 °F 29.94 in NW 3.5 mph 5.8 mph 68% 0.00 in 0.00 W/m2
10:59 89.5 °F 78.0 °F 29.94 in West 6.5 mph 9.2 mph 69% 0.00 in 458.10 W/m2
11:04 89.5 °F 77.1 °F 29.94 in WNW 6.7 mph 9.2 mph 67% 0.00 in 0.00 W/m2
11:09 88.4 °F 77.4 °F 29.95 in West 3.5 mph 5.8 mph 70% 0.00 in 0.00 W/m2
11:14 88.3 °F 77.3 °F 29.95 in West 5.3 mph 9.2 mph 70% 0.00 in 318.90 W/m2
11:19 88.2 °F 75.9 °F 29.95 in WSW 4.6 mph 6.9 mph 67% 0.00 in 85.00 W/m2
11:24 87.9 °F 76.9 °F 29.94 in West 4.7 mph 6.9 mph 70% 0.00 in 105.00 W/m2
11:29 87.8 °F 75.9 °F 29.94 in NW 5.4 mph 8.1 mph 68% 0.00 in 105.00 W/m2
11:34 88.6 °F 77.1 °F 29.94 in SW 4.9 mph 5.8 mph 69% 0.00 in 145.10 W/m2
11:39 90.0 °F 77.6 °F 29.94 in West 5.3 mph 5.8 mph 67% 0.00 in 466.30 W/m2
11:44 90.5 °F 77.1 °F 29.94 in SW 7.1 mph 8.1 mph 65% 0.00 in 464.50 W/m2
11:49 90.4 °F 77.0 °F 29.94 in WSW 8.2 mph 9.2 mph 65% 0.00 in 463.60 W/m2
11:54 90.7 °F 76.8 °F 29.94 in WNW 5.6 mph 8.1 mph 64% 0.00 in 463.60 W/m2
11:59 90.6 °F 76.7 °F 29.94 in WNW 4.6 mph 9.2 mph 64% 0.00 in 464.50 W/m2
12:04 90.2 °F 77.3 °F 29.94 in West 8.0 mph 11.5 mph 66% 0.00 in 466.30 W/m2
12:09 90.0 °F 77.6 °F 29.94 in WNW 7.6 mph 9.2 mph 67% 0.00 in 197.80 W/m2
12:14 89.7 °F 78.2 °F 29.94 in West 5.9 mph 11.5 mph 69% 0.00 in 434.40 W/m2
12:19 90.4 °F 78.4 °F 29.94 in WSW 9.1 mph 10.4 mph 68% 0.00 in 378.00 W/m2
12:24 90.6 °F 77.7 °F 29.94 in West 7.9 mph 9.9 mph 66% 0.00 in 452.60 W/m2
12:29 90.6 °F 77.7 °F 29.94 in NW 7.1 mph 9.2 mph 66% 0.00 in 433.50 W/m2
12:34 90.1 °F 76.7 °F 29.94 in WNW 7.2 mph 9.9 mph 65% 0.00 in 433.50 W/m2
12:39 90.2 °F 77.3 °F 29.94 in West 2.9 mph 9.2 mph 66% 0.00 in 230.60 W/m2
12:44 90.8 °F 77.4 °F 29.93 in WSW 6.4 mph 10.4 mph 65% 0.00 in 451.70 W/m2
12:49 91.3 °F 76.5 °F 29.93 in West 8.3 mph 10.4 mph 62% 0.00 in 454.50 W/m2
12:54 91.8 °F 76.9 °F 29.93 in West 6.0 mph 12.7 mph 62% 0.00 in 451.70 W/m2
12:59 91.6 °F 75.7 °F 29.93 in NW 8.6 mph 11.5 mph 60% 0.00 in 451.70 W/m2
13:04 91.5 °F 76.6 °F 29.93 in WNW 6.6 mph 9.9 mph 62% 0.00 in 451.70 W/m2
13:09 91.1 °F 76.7 °F 29.93 in West 5.9 mph 11.5 mph 63% 0.00 in 451.70 W/m2
13:14 90.4 °F 76.6 °F 29.93 in WNW 7.6 mph 12.7 mph 64% 0.00 in 154.20 W/m2
13:19 90.9 °F 76.6 °F 29.93 in West 7.7 mph 12.7 mph 63% 0.00 in 363.50 W/m2
13:24 90.8 °F 76.0 °F 29.93 in West 4.5 mph 12.7 mph 62% 0.00 in 363.50 W/m2
13:29 91.3 °F 77.4 °F 29.93 in West 7.5 mph 8.1 mph 64% 0.00 in 64.10 W/m2
13:34 91.6 °F 76.2 °F 29.93 in West 8.5 mph 10.4 mph 61% 0.00 in 28.60 W/m2
13:39 91.8 °F 75.4 °F 29.92 in West 6.3 mph 9.2 mph 59% 0.00 in 364.40 W/m2
13:44 92.2 °F 75.8 °F 29.92 in West 4.9 mph 9.2 mph 59% 0.00 in 441.70 W/m2
13:49 92.1 °F 75.2 °F 29.92 in WNW 6.5 mph 11.5 mph 58% 0.00 in 443.50 W/m2
13:54 91.7 °F 75.8 °F 29.91 in West 7.7 mph 10.4 mph 60% 0.00 in 443.50 W/m2
13:59 91.8 °F 76.4 °F 29.92 in West 5.9 mph 8.1 mph 61% 0.00 in 443.50 W/m2
14:04 91.3 °F 76.5 °F 29.92 in West 7.1 mph 10.4 mph 62% 0.00 in 436.30 W/m2
14:09 91.7 °F 76.8 °F 29.92 in WSW 7.0 mph 10.4 mph 62% 0.00 in 426.30 W/m2
14:14 91.8 °F 76.4 °F 29.92 in WSW 7.5 mph 9.2 mph 61% 0.00 in 426.30 W/m2
14:19 92.1 °F 76.2 °F 29.91 in SW 7.0 mph 10.4 mph 60% 0.00 in 407.10 W/m2
14:24 92.1 °F 76.7 °F 29.91 in West 7.4 mph 12.7 mph 61% 0.00 in 361.60 W/m2
14:29 92.0 °F 77.6 °F 29.91 in West 5.3 mph 8.1 mph 63% 0.00 in 205.10 W/m2
14:34 92.0 °F 76.6 °F 29.91 in WSW 9.2 mph 12.7 mph 61% 0.00 in 205.10 W/m2
14:39 91.9 °F 75.5 °F 29.91 in WNW 7.5 mph 12.7 mph 59% 0.00 in 140.50 W/m2
14:44 90.8 °F 76.0 °F 29.91 in West 9.3 mph 12.7 mph 62% 0.00 in 146.90 W/m2
14:49 90.9 °F 76.6 °F 29.91 in NW 7.6 mph 10.4 mph 63% 0.00 in 135.10 W/m2
14:54 91.5 °F 75.7 °F 29.91 in WNW 6.8 mph 12.7 mph 60% 0.00 in 125.00 W/m2
14:59 91.5 °F 75.7 °F 29.90 in WNW 8.5 mph 11.5 mph 60% 0.00 in 127.80 W/m2
15:04 91.3 °F 76.5 °F 29.90 in West 8.3 mph 15.0 mph 62% 0.00 in 127.80 W/m2
15:09 92.3 °F 75.9 °F 29.90 in NW 13.1 mph 15.4 mph 59% 0.00 in 116.80 W/m2
15:14 91.8 °F 75.9 °F 29.90 in WSW 10.0 mph 13.8 mph 60% 0.00 in 120.50 W/m2
15:19 91.7 °F 76.8 °F 29.91 in WSW 9.1 mph 12.1 mph 62% 0.00 in 110.50 W/m2
15:24 91.5 °F 76.6 °F 29.90 in NW 8.5 mph 11.0 mph 62% 0.00 in 101.40 W/m2
15:29 91.4 °F 76.1 °F 29.90 in West 9.1 mph 10.4 mph 61% 0.00 in 101.40 W/m2
15:34 90.7 °F 75.9 °F 29.90 in West 4.9 mph 8.8 mph 62% 0.00 in 101.40 W/m2
15:39 89.9 °F 75.1 °F 29.90 in WNW 6.8 mph 12.7 mph 62% 0.00 in 52.20 W/m2
15:44 89.1 °F 75.3 °F 29.90 in West 4.9 mph 10.4 mph 64% 0.00 in 19.50 W/m2
15:49 89.2 °F 75.4 °F 29.90 in West 6.7 mph 8.1 mph 64% 0.00 in 52.20 W/m2
15:54 88.8 °F 75.0 °F 29.90 in WSW 6.6 mph 8.1 mph 64% 0.00 in 0.00 W/m2
15:59 88.7 °F 75.4 °F 29.90 in West 6.4 mph 11.5 mph 65% 0.00 in 0.00 W/m2
16:04 88.4 °F 75.1 °F 29.91 in West 4.1 mph 9.2 mph 65% 0.00 in 0.00 W/m2
16:09 88.3 °F 75.5 °F 29.90 in NW 6.7 mph 8.1 mph 66% 0.00 in 0.00 W/m2
16:14 88.0 °F 74.8 °F 29.90 in West 5.4 mph 8.1 mph 65% 0.00 in 0.00 W/m2
16:19 87.9 °F 75.1 °F 29.90 in West 5.4 mph 6.9 mph 66% 0.00 in 0.00 W/m2
16:24 87.7 °F 74.9 °F 29.90 in WNW 5.6 mph 6.9 mph 66% 0.00 in 0.00 W/m2
16:29 87.6 °F 75.3 °F 29.90 in WSW 3.5 mph 5.8 mph 67% 0.00 in 0.00 W/m2
16:34 87.4 °F 75.1 °F 29.90 in West 3.5 mph 5.8 mph 67% 0.00 in 0.00 W/m2
16:39 87.3 °F 75.4 °F 29.90 in SW 3.9 mph 6.9 mph 68% 0.00 in 0.00 W/m2
16:44 87.2 °F 75.3 °F 29.90 in WSW 4.9 mph 5.8 mph 68% 0.00 in 0.00 W/m2
16:49 87.2 °F 75.8 °F 29.90 in WSW 5.6 mph 8.1 mph 69% 0.00 in 0.00 W/m2
16:54 87.1 °F 75.7 °F 29.90 in West 5.7 mph 6.9 mph 69% 0.00 in 0.00 W/m2
16:59 87.0 °F 75.6 °F 29.90 in WSW 4.1 mph 6.9 mph 69% 0.00 in 0.00 W/m2
17:04 87.0 °F 75.6 °F 29.90 in WNW 6.2 mph 10.4 mph 69% 0.00 in 0.00 W/m2
17:09 87.0 °F 76.0 °F 29.90 in West 5.2 mph 8.8 mph 70% 0.00 in 0.00 W/m2
17:14 86.8 °F 75.8 °F 29.90 in SW 3.9 mph 4.6 mph 70% 0.00 in 0.00 W/m2
17:19 86.6 °F 75.6 °F 29.89 in WSW 3.5 mph 6.9 mph 70% 0.00 in 0.00 W/m2
17:24 86.5 °F 76.0 °F 29.89 in WNW 3.3 mph 5.8 mph 71% 0.00 in 0.00 W/m2
17:29 86.2 °F 75.7 °F 29.89 in WSW 5.9 mph 8.1 mph 71% 0.00 in 0.00 W/m2
17:34 86.0 °F 75.9 °F 29.89 in West 5.5 mph 7.7 mph 72% 0.00 in 0.00 W/m2
17:39 85.7 °F 75.6 °F 29.89 in WSW 4.2 mph 6.6 mph 72% 0.00 in 0.00 W/m2
17:44 85.6 °F 75.1 °F 29.89 in SW 4.2 mph 6.9 mph 71% 0.00 in 0.00 W/m2
17:49 85.7 °F 75.2 °F 29.89 in West 3.7 mph 8.1 mph 71% 0.00 in 0.00 W/m2
17:54 85.8 °F 75.3 °F 29.89 in WSW 2.4 mph 4.6 mph 71% 0.00 in 0.00 W/m2
17:59 85.8 °F 74.9 °F 29.89 in West 4.9 mph 8.1 mph 70% 0.00 in 0.00 W/m2
18:04 85.9 °F 75.0 °F 29.89 in WSW 3.5 mph 4.4 mph 70% 0.00 in 0.00 W/m2
18:09 86.0 °F 75.1 °F 29.89 in WNW 3.1 mph 5.8 mph 70% 0.00 in 0.00 W/m2
18:14 86.0 °F 74.6 °F 29.89 in WSW 2.8 mph 5.8 mph 69% 0.00 in 0.00 W/m2
18:19 86.1 °F 74.7 °F 29.89 in WSW 2.3 mph 3.5 mph 69% 0.00 in 0.00 W/m2
18:24 86.3 °F 74.9 °F 29.89 in West 3.2 mph 5.8 mph 69% 0.00 in 0.00 W/m2
18:29 86.3 °F 75.8 °F 29.90 in West 2.2 mph 3.5 mph 71% 0.00 in 0.00 W/m2
18:34 86.2 °F 75.7 °F 29.90 in West 5.9 mph 8.1 mph 71% 0.00 in 0.00 W/m2
18:39 86.1 °F 76.0 °F 29.91 in WNW 3.5 mph 6.9 mph 72% 0.00 in 0.00 W/m2
18:44 86.1 °F 75.6 °F 29.91 in West 3.9 mph 6.9 mph 71% 0.00 in 0.00 W/m2
18:49 85.9 °F 75.8 °F 29.91 in WNW 4.4 mph 8.1 mph 72% 0.00 in 0.00 W/m2
18:54 85.9 °F 75.8 °F 29.91 in WNW 4.7 mph 5.8 mph 72% 0.00 in 0.00 W/m2
18:59 85.8 °F 75.7 °F 29.91 in NW 3.8 mph 5.8 mph 72% 0.00 in 0.00 W/m2
19:04 85.7 °F 76.0 °F 29.91 in WNW 2.6 mph 4.6 mph 73% 0.00 in 0.00 W/m2
19:09 85.5 °F 76.3 °F 29.92 in NW 2.3 mph 3.5 mph 74% 0.00 in 0.00 W/m2
19:14 85.4 °F 76.2 °F 29.92 in WNW 3.2 mph 4.6 mph 74% 0.00 in 0.00 W/m2
19:19 85.3 °F 76.1 °F 29.92 in WSW 1.1 mph 4.6 mph 74% 0.00 in 0.00 W/m2
19:24 85.2 °F 76.4 °F 29.92 in West 1.8 mph 2.3 mph 75% 0.00 in 0.00 W/m2
19:29 85.2 °F 76.4 °F 29.92 in WSW 1.2 mph 3.5 mph 75% 0.00 in 0.00 W/m2
19:34 85.0 °F 76.2 °F 29.92 in SW 1.4 mph 3.5 mph 75% 0.00 in 0.00 W/m2
19:39 84.8 °F 76.0 °F 29.92 in WSW 1.5 mph 3.5 mph 75% 0.00 in 0.00 W/m2
19:44 84.7 °F 76.3 °F 29.92 in WSW 2.5 mph 2.3 mph 76% 0.00 in 0.00 W/m2
19:49 84.7 °F 76.3 °F 29.92 in West 1.7 mph 2.3 mph 76% 0.00 in 0.00 W/m2
19:54 84.6 °F 76.2 °F 29.92 in WSW 1.3 mph 3.5 mph 76% 0.00 in 0.00 W/m2
19:59 84.6 °F 76.6 °F 29.92 in WSW 1.4 mph 2.3 mph 77% 0.00 in 0.00 W/m2
20:04 84.8 °F 76.4 °F 29.92 in WSW 2.1 mph 2.3 mph 76% 0.00 in 0.00 W/m2
20:09 84.7 °F 76.3 °F 29.92 in West 1.9 mph 2.3 mph 76% 0.00 in 0.00 W/m2
20:14 84.5 °F 76.5 °F 29.92 in West 2.0 mph 2.3 mph 77% 0.00 in 0.00 W/m2
20:19 84.3 °F 76.3 °F 29.92 in WSW 0.8 mph 1.2 mph 77% 0.00 in 0.00 W/m2
20:24 84.2 °F 76.2 °F 29.92 in WSW 0.9 mph 2.3 mph 77% 0.00 in 0.00 W/m2
20:29 84.2 °F 76.6 °F 29.92 in Calm     78% 0.00 in 0.00 W/m2
20:34 84.1 °F 76.5 °F 29.92 in WSW 1.3 mph 2.3 mph 78% 0.00 in 0.00 W/m2
20:39 84.1 °F 76.5 °F 29.92 in Calm   1.1 mph 78% 0.00 in 0.00 W/m2
20:44 83.9 °F 76.3 °F 29.92 in West 2.4 mph 3.5 mph 78% 0.00 in 0.00 W/m2
20:49 83.8 °F 76.6 °F 29.92 in WSW 0.4 mph 2.3 mph 79% 0.00 in 0.00 W/m2
20:54 83.7 °F 76.5 °F 29.93 in West 1.4 mph 1.2 mph 79% 0.00 in 0.00 W/m2
20:59 83.6 °F 76.4 °F 29.93 in West 1.1 mph 3.3 mph 79% 0.00 in 0.00 W/m2
21:04 83.4 °F 76.6 °F 29.93 in WSW 1.5 mph 3.3 mph 80% 0.00 in 0.00 W/m2
21:09 83.4 °F 76.6 °F 29.93 in WSW 1.5 mph 2.3 mph 80% 0.00 in 0.00 W/m2
21:14 83.3 °F 76.5 °F 29.93 in West 1.7 mph 2.3 mph 80% 0.00 in 0.00 W/m2
21:19 83.3 °F 76.9 °F 29.93 in WSW 2.5 mph 4.6 mph 81% 0.00 in 0.00 W/m2
21:24 83.3 °F 76.9 °F 29.93 in WNW 2.1 mph 3.3 mph 81% 0.00 in 0.00 W/m2
21:29 83.2 °F 76.8 °F 29.94 in West 0.2 mph 1.2 mph 81% 0.00 in 0.00 W/m2
21:34 83.1 °F 76.7 °F 29.94 in WSW 2.4 mph 3.5 mph 81% 0.00 in 0.00 W/m2
21:39 83.1 °F 76.7 °F 29.94 in West 1.1 mph 2.3 mph 81% 0.00 in 0.00 W/m2
21:44 83.1 °F 77.0 °F 29.94 in West 1.5 mph 2.3 mph 82% 0.00 in 0.00 W/m2
21:49 83.1 °F 77.0 °F 29.93 in WSW 1.3 mph 2.3 mph 82% 0.00 in 0.00 W/m2
21:54 83.0 °F 76.9 °F 29.94 in West 1.8 mph 2.3 mph 82% 0.00 in 0.00 W/m2
21:59 83.0 °F 76.9 °F 29.94 in WSW 1.7 mph 2.3 mph 82% 0.00 in 0.00 W/m2
22:04 83.0 °F 76.9 °F 29.94 in Calm   1.2 mph 82% 0.00 in 0.00 W/m2
22:09 82.9 °F 76.8 °F 29.94 in Calm     82% 0.00 in 0.00 W/m2
22:14 82.9 °F 76.8 °F 29.94 in West 1.9 mph 2.3 mph 82% 0.00 in 0.00 W/m2
22:19 82.8 °F 76.7 °F 29.95 in West 0.6 mph 1.2 mph 82% 0.00 in 0.00 W/m2
22:24 82.8 °F 76.7 °F 29.95 in West 0.9 mph 2.3 mph 82% 0.00 in 0.00 W/m2
22:29 82.8 °F 76.7 °F 29.95 in West 0.2 mph 1.2 mph 82% 0.00 in 0.00 W/m2
22:34 82.7 °F 76.6 °F 29.95 in West 1.4 mph 1.2 mph 82% 0.00 in 0.00 W/m2
22:39 82.7 °F 76.6 °F 29.95 in Calm   1.2 mph 82% 0.00 in 0.00 W/m2
22:44 82.6 °F 76.5 °F 29.95 in Calm     82% 0.00 in 0.00 W/m2
22:49 82.5 °F 76.4 °F 29.95 in Calm     82% 0.00 in 0.00 W/m2
22:54 82.4 °F 76.3 °F 29.95 in Calm     82% 0.00 in 0.00 W/m2
22:59 82.3 °F 76.3 °F 29.95 in Calm     82% 0.00 in 0.00 W/m2
23:04 82.3 °F 76.3 °F 29.95 in Calm     82% 0.00 in 0.00 W/m2
23:09 82.0 °F 76.3 °F 29.95 in Calm     83% 0.00 in 0.00 W/m2
Juneau County Weather
Compliments of Weather Underground - 3 mb